Location: Rautavesi
(61.3667°N, 23.0000°E)
Time: 05:54:00
(UTC+00:00)

Daily predictions for brighter satellites

Satellite Brightness Start Highest point End
(mag) Time Altitude Azimuth Time Altitude Azimuth Time Altitude Azimuth
Genesis I 3.3 00:03:30 50° S 00:04:02 56° SE 00:07:53 10° ENE
Cosmos 1933 4.3 00:03:26 30° W 00:04:30 36° WNW 00:08:16 10° N
Lacrosse 5 rocket 2.7 00:05:46 22° SE 00:05:46 22° SE 00:08:20 10° E
Cosmos 1606 3.9 00:04:50 28° W 00:05:49 32° WNW 00:09:22 10° N
Cosmos 2333 Rocket 2.8 00:00:49 10° NW 00:05:56 36° WSW 00:07:04 33° SW
Cosmos 1500 3.2 00:02:58 10° NNW 00:06:40 54° W 00:07:03 51° SW
Cosmos 1777 Rocket 4.1 00:06:01 34° SW 00:08:22 75° NW 00:13:39 10° NNE
Cosmos 1151 Rocket 4.3 00:07:23 25° W 00:08:56 31° WNW 00:12:50 10° N
MOZ.5/SAFIR/RUBIN 5/SL-8 4.0 00:07:47 38° SSW 00:09:16 54° W 00:13:59 10° NNW
Cosmos 1833 4.3 00:06:53 34° SSW 00:09:29 72° SE 00:15:14 10° NE
Cosmos 2237 Rocket 2.1 00:06:57 10° NW 00:12:35 66° SW 00:17:07 16° SSE
CZ-4B R/B 4.0 00:08:52 10° NNE 00:13:34 49° ESE 00:16:02 25° SSE
Cosmos 44 Rocket 3.2 00:12:06 39° SSW 00:13:42 65° SE 00:18:24 10° ENE
Cosmos 2034 Rocket 4.0 00:08:35 10° NNW 00:14:59 78° W 00:19:07 24° S
CZ-4C R/B 3.9 00:15:10 33° W 00:15:10 33° W 00:18:14 10° NNW
Meteor 1-29 3.9 00:13:36 10° N 00:16:47 36° WNW 00:17:25 33° W
ATLAS 5 CENTAUR R/B 2.1 00:12:27 10° WNW 00:17:33 90° NNE 00:23:35 10° ESE
Meteor 1-10 Rocket 4.3 00:15:16 29° S 00:18:11 74° ESE 00:23:47 10° NNE
Cosmos 1937 Rocket 4.5 00:16:36 22° SSE 00:19:24 38° ESE 00:24:10 10° NE
NOSS 7 (D) 3.9 00:19:52 69° NNW 00:19:56 70° NNW 00:22:40 10° ENE
Cosmos 1818 3.5 00:14:58 10° WNW 00:20:28 85° SSW 00:25:57 10° SE
ERS-2 2.2 00:18:44 29° SSE 00:20:30 76° ENE 00:24:11 10° NNW
SL-08 R/B 3.6 00:19:03 12° SSE 00:23:38 73° ENE 00:28:37 10° NNW
Cosmos 2285 Rocket 4.2 00:20:09 27° S 00:23:45 66° ESE 00:30:08 10° NE
Cosmos 1607 4.2 00:22:26 14° W 00:27:57 71° NNW 00:34:18 10° ENE
Meteor 1-27 Rocket 4.1 00:24:54 22° S 00:28:34 62° E 00:34:21 10° NNE
SeaSat 1 3.8 00:24:57 10° E 00:29:35 42° NNE 00:34:15 10° NW
Cosmos 2082 Rocket 3.6 00:28:46 10° W 00:33:59 36° NNW 00:39:15 10° NE
Cosmos 1898 Rocket 3.8 00:31:30 27° S 00:34:14 57° ESE 00:39:22 10° NE
SL-16 R/B 2.9 00:31:32 27° SSW 00:34:43 48° W 00:40:44 10° NNW
Cosmos 1666 2.7 00:31:43 10° NNW 00:35:25 58° W 00:36:27 41° SSW
UNK 4.3 00:34:16 32° SW 00:35:46 41° W 00:40:14 10° NNW
Cosmos 990 Rocket 4.2 00:35:04 27° S 00:37:48 61° ESE 00:42:55 10° NE
Meteor 1-11 Rocket 4.1 00:33:28 10° NNW 00:39:10 50° W 00:42:22 25° SSW
Cosmos 1782 3.7 00:37:59 28° WSW 00:39:17 36° WNW 00:42:59 10° N
COSMOS 2487 3.1 00:38:18 33° W 00:39:23 45° NW 00:42:45 10° NNE
Cosmos 1975 3.7 00:35:59 10° N 00:39:54 48° ENE 00:43:50 10° SE
Cosmos 1743 2.9 00:36:15 10° NNW 00:40:10 73° ENE 00:43:07 17° SSE
Cosmos 2297 Rocket 3.8 00:36:37 11° SSE 00:41:00 27° ESE 00:45:40 10° NE
Cosmos 839 Rocket 4.2 00:37:10 23° WSW 00:41:31 89° NNW 00:49:17 10° ENE
Landsat 5 4.1 00:40:30 10° SE 00:44:14 52° ENE 00:48:04 10° NNW
Cosmos 1048 Rocket 4.0 00:38:58 10° NW 00:44:19 78° WSW 00:49:41 10° SSE
Cosmos 1833 Rocket 4.3 00:40:07 10° WNW 00:45:11 32° N 00:50:15 10° NE
Cosmos 2279 Rocket 4.4 00:40:03 10° NNW 00:46:17 67° ENE 00:52:31 10° SSE
Helios 1B rocket 4.1 00:43:21 10° N 00:46:39 24° NW 00:48:41 16° W
AQUA 4.0 00:41:51 10° NNE 00:46:39 70° ESE 00:49:37 23° S
EP 3 3.9 00:47:08 71° NE 00:47:08 71° NE 00:49:23 10° ENE
Cosmos 2219 Rocket 3.4 00:44:02 10° NW 00:48:15 22° WSW 00:49:01 22° WSW
USA 234 3.3 00:42:35 10° ESE 00:48:58 53° SSW 00:55:23 10° W
Cosmos 2219 4.3 00:45:55 15° S 00:50:05 36° ESE 00:55:19 10° NE
Cosmos 724 4.3 00:47:06 20° WSW 00:51:18 77° NNW 00:57:09 10° ENE
Meteor 2-6 Rocket 4.2 00:49:34 26° SW 00:52:35 65° WNW 00:58:00 10° NNE
Cosmos 1184 Rocket 3.4 00:49:48 10° NNW 00:52:53 36° W 00:53:11 35° WSW
Cosmos 1707 Rocket 3.8 00:54:50 28° SW 00:56:59 59° WNW 01:01:26 10° N
Cosmos 405 3.5 00:55:06 24° S 00:57:00 56° ESE 01:00:30 10° NNE
Cosmos 44 3.6 00:53:22 12° W 00:57:21 54° N 01:01:43 10° ENE
IRS-1D 3.7 00:53:57 10° NNE 00:58:58 66° ESE 01:02:48 18° S
Cosmos 1862 Rocket 3.5 00:59:22 24° SSW 01:02:01 89° WNW 01:06:31 10° NNE
ADEOS II 2.6 00:58:24 10° NNE 01:03:37 58° ESE 01:08:11 13° S
Meteor 1-28 Rocket 3.2 01:01:25 10° SSE 01:05:08 83° ENE 01:08:56 10° NNW
Cosmos 2227 Rocket 3.5 01:02:32 11° S 01:07:23 34° ESE 01:12:26 10° NE
Cosmos 1943 3.8 01:02:07 10° NW 01:07:48 60° NE 01:13:28 10° ESE
COSMOS 2428 4.1 01:05:29 10° WNW 01:09:15 18° W 01:10:03 18° WSW
Cosmos 2346 Rocket 4.4 01:05:08 20° SSW 01:09:36 79° WNW 01:15:44 10° NNE
Cosmos 1782 Rocket 3.4 01:06:34 10° NNW 01:10:57 81° WSW 01:15:17 10° S
Cosmos 1980 4.5 01:10:03 10° NW 01:14:57 30° WSW 01:18:04 18° SSW
Resurs 1-4 Rocket 2.2 01:10:06 10° NNE 01:15:22 66° WNW 01:18:58 20° SW
IDEFIX/ARIANE 42P 4.2 01:12:26 10° NNE 01:17:05 31° E 01:21:42 10° SSE
SJ 16-02 1.5 01:14:58 24° SW 01:17:34 66° NW 01:21:58 10° NNE
Cosmos 1812 3.4 01:15:58 25° WSW 01:17:48 42° WNW 01:21:31 10° N
Okean 1-7 3.6 01:18:14 11° S 01:22:22 58° E 01:26:44 10° NNE
Cosmos 2242 Rocket 3.7 01:19:37 17° S 01:23:11 87° E 01:27:47 10° NNE
CZ-4C R/B 2.6 01:21:00 15° S 01:23:29 67° WSW 01:26:40 10° NNW
ARIANE 5 R/B 3.0 01:20:25 10° NNE 01:25:36 60° ESE 01:30:47 10° S
Cosmos 1703 Rocket 3.8 01:23:06 12° S 01:27:09 70° E 01:31:38 10° NNE
SAR-Lupe-4 3.5 01:24:31 10° SSE 01:28:07 88° WSW 01:31:44 10° NNW
IRS-1C 4.2 01:25:36 10° NNE 01:30:59 78° ESE 01:36:02 12° SSW
SL-16 R/B 2.4 01:27:45 10° NW 01:33:12 48° WSW 01:38:36 10° S
Cosmos 405 Rocket 4.3 01:32:43 10° NW 01:35:09 17° W 01:35:50 16° W
Cosmos 1908 Rocket 4.2 01:32:43 10° NNW 01:36:43 35° W 01:39:31 17° SSW
Cosmos 1536 4.4 01:34:02 10° NW 01:36:54 19° W 01:38:08 17° WSW
H-2A R/B 2.3 01:34:44 12° S 01:38:21 43° W 01:42:19 10° NNW
NPP 4.0 01:34:34 10° NNE 01:39:51 54° WNW 01:44:03 16° SW
CZ-4B R/B 1.8 01:36:51 10° SSE 01:40:20 70° ENE 01:43:48 10° NNW
CZ-2D R/B 2.6 01:36:13 10° NNE 01:41:31 50° WNW 01:45:47 16° SW
Genesis I 3.5 01:38:22 14° W 01:41:41 62° NNW 01:45:34 10° ENE
Lacrosse 5 rocket 1.8 01:41:24 19° SW 01:43:45 42° S 01:47:34 10° E
Cosmos 1634 Rocket 4.3 01:38:11 10° NNW 01:44:03 47° W 01:49:54 10° SSW
SAR-Lupe-1 4.0 01:41:56 10° S 01:45:31 68° WSW 01:49:07 10° NNW
Timation 2 Rocket 4.3 01:39:47 16° SW 01:45:35 90° NNE 01:52:32 10° NE
Cosmos 389 Rocket 3.9 01:44:36 10° SSE 01:47:54 36° E 01:51:10 10° NNE
Meteor 1-12 Rocket 4.4 01:44:26 10° NNW 01:50:29 85° WSW 01:56:25 10° SSE
CZ-4B R/B 4.0 01:47:45 10° NNE 01:52:17 41° WNW 01:55:59 14° WSW
ERS-2 3.7 01:53:19 16° WSW 01:54:32 18° W 01:57:09 10° NW
Cosmos 44 Rocket 3.6 01:50:48 11° W 01:55:22 62° NNW 02:00:06 10° ENE
Cosmos 2237 Rocket 3.5 01:51:49 10° WNW 01:55:44 19° WSW 01:58:51 13° SW
ERS-1 4.5 01:51:05 10° NNE 01:56:07 88° WNW 02:01:05 10° SSW
Cosmos 1603 3.6 01:50:36 10° NW 01:56:15 79° SW 02:01:52 10° SSE
NOSS 7 (D) 4.3 01:55:18 10° WNW 01:57:59 58° N 02:00:46 10° E
CBERS-1 4.3 01:53:10 10° NNE 01:58:12 56° WNW 02:02:45 12° SW
Cosmos 372 Rocket 4.1 01:54:53 11° SSW 01:59:51 82° ESE 02:05:05 10° NE
Okean 3 4.2 01:55:50 10° S 01:59:54 53° E 02:04:00 10° NNE
Cosmos 494 Rocket 4.4 01:56:02 10° NW 02:00:57 41° WSW 02:05:51 10° S
Cosmos 1937 Rocket 3.7 01:56:46 14° SW 02:01:13 62° NW 02:06:23 10° NNE
SL-08 R/B 4.4 01:58:01 12° SSW 02:01:55 28° W 02:06:13 10° NNW
ATLAS 5 CENTAUR R/B 2.5 01:56:59 10° WNW 02:02:04 44° SW 02:07:56 10° SSE
ATLAS 3B R/B 4.4 01:57:05 10° SSE 02:02:14 24° ESE 02:07:24 10° ENE
Cosmos 1544 3.5 01:58:54 10° NNW 02:02:23 42° W 02:05:50 10° SSW
Cosmos 1818 4.2 01:58:46 10° WNW 02:03:37 33° SW 02:08:25 10° S
Cosmos 1300 Rocket 3.5 01:59:34 10° NNW 02:03:54 70° W 02:08:11 10° S
Cosmos 1515 3.8 02:00:32 10° S 02:04:20 79° ESE 02:08:11 10° NNE
Tsikada Rocket 4.4 02:00:24 12° SW 02:06:14 51° WNW 02:12:29 10° N
Meteor 1-19 Rocket 4.3 02:01:06 10° S 02:06:40 81° ESE 02:12:10 10° NNE
SeaSat 1 2.4 02:02:00 10° SE 02:06:57 76° SW 02:11:56 10° NW
IRS-P3 4.3 02:03:40 10° NNE 02:08:58 62° WNW 02:14:14 10° SW
Okean 1 3.4 02:06:03 10° SSW 02:09:56 61° WNW 02:13:54 10° N
Meteor 1-27 Rocket 4.5 02:07:19 12° SW 02:12:17 40° WNW 02:17:49 10° NNE
Okean 2 Rocket 3.3 02:09:11 10° NNW 02:13:35 53° W 02:17:58 10° S
Cosmos 2221 Rocket 3.9 02:10:03 10° S 02:14:27 71° ESE 02:18:54 10° NNE
Sich 1 Rocket 4.2 02:10:47 10° NNW 02:14:49 36° W 02:18:50 10° SSW
Cosmos 2151 Rocket 3.5 02:10:42 10° NNW 02:15:06 66° W 02:19:27 10° S
Cosmos 1743 4.2 02:12:41 10° NW 02:15:33 20° W 02:18:11 11° SW
Cosmos 1607 4.4 02:09:34 10° WNW 02:15:48 65° N 02:22:09 10° E
Cosmos 1975 3.7 02:12:43 10° NNW 02:16:15 30° W 02:19:47 10° SSW
Cosmos 1898 Rocket 4.1 02:11:46 11° WSW 02:16:31 45° NW 02:21:35 10° NNE
Cosmos 2082 Rocket 3.9 02:14:21 10° NW 02:19:29 33° N 02:24:37 10° ENE
Aureole 3 Rocket 4.4 02:14:04 10° NNW 02:19:32 49° ENE 02:23:30 10° SE
SL-16 R/B 4.3 02:16:58 10° WSW 02:19:58 14° WNW 02:22:59 10° NW
Landsat 5 4.3 02:16:42 10° SSW 02:20:01 27° W 02:23:25 10° NW
Cosmos 1356 3.7 02:16:45 10° NNW 02:20:04 45° W 02:23:23 10° S
Cosmos 1269 Rocket 4.5 02:16:57 10° NW 02:21:54 39° WSW 02:26:48 10° S
Cosmos 2297 Rocket 2.3 02:18:45 10° SW 02:24:27 86° SE 02:30:10 10° NE
USA 238 DEB 4.1 02:19:26 10° SW 02:26:03 60° SE 02:32:58 10° ENE
USA 238 4.1 02:19:32 10° SW 02:26:10 60° SE 02:33:06 10° ENE
CZ-2C R/B 2.9 02:22:37 10° NNE 02:26:43 85° WNW 02:30:45 10° SSW
Cosmos 1689 Rocket 2.0 02:24:19 10° S 02:27:19 70° WSW 02:30:20 10° NNW
Cosmos 1833 Rocket 4.3 02:25:18 10° NW 02:30:30 36° NNE 02:35:42 10° E
Cosmos 405 4.5 02:29:01 10° WSW 02:31:58 24° WNW 02:34:55 10° N
USA 234 4.0 02:27:21 10° SSE 02:33:00 30° SW 02:38:40 10° W
Cosmos 2219 3.3 02:28:11 10° SW 02:33:57 76° NW 02:39:47 10° NE
Meteor 2-4 Rocket 3.9 02:28:58 10° SSW 02:34:55 86° E 02:40:46 10° NNE
Cosmos 2251 Rocket 3.5 02:30:24 10° NW 02:35:47 73° WSW 02:41:06 10° SSE
COBE Rocket 4.5 02:32:58 10° SSW 02:37:16 34° W 02:41:32 10° NNW
IRS-1D 4.4 02:33:32 10° N 02:38:02 35° NW 02:42:35 10° WSW
Cosmos 44 3.6 02:34:41 10° WNW 02:39:01 61° NNE 02:43:29 10° E
Nadezhda 4 Rocket 4.2 02:34:37 10° S 02:41:00 88° E 02:47:22 10° NNE
Meteor 1-18 Rocket 4.5 02:36:12 10° SW 02:41:53 58° WNW 02:47:30 10° NNE
ADEOS II 2.8 02:38:20 10° NNE 02:43:15 40° NW 02:48:08 10° SW
MSX 4.1 02:37:36 10° NNE 02:43:25 78° ESE 02:49:13 10° SSW
Cosmos 1125 Rocket 3.6 02:39:13 10° SSW 02:44:33 90° WNW 02:49:56 10° NE
CZ-2D R/B 3.9 02:42:05 10° N 02:46:16 49° WNW 02:50:18 10° SW
